Location: Cutler
(25.6150°N, 80.3110°W)
Time: 21:03:25
(UTC-05:00)

Vanguard 1 - All Passes

Search period start: 23 January 2018 00:00
Search period end: 02 February 2018 00:00
Orbit: 649 x 3834 km, 34.2° (Epoch: 23 January)

Date Brightness Start Highest point End Pass type
(mag) Time Alt. Az. Time Alt. Az. Time Alt. Az.
23 Jan - 01:00:06 10° WNW 01:07:28 52° N 01:21:09 10° ENE visible
23 Jan - 03:20:24 10° WNW 03:31:33 76° NNE 03:52:04 10° ESE visible
23 Jan - 05:41:45 10° WNW 05:56:56 61° SSW 06:19:41 10° SE visible
23 Jan - 08:08:20 10° W 08:23:11 25° SW 08:39:56 10° S daylight
23 Jan - 20:42:07 10° SSW 20:46:07 33° SE 20:51:13 10° E visible
23 Jan - 23:01:01 10° W 23:06:20 58° NNW 23:15:24 10° ENE night (unlit)
24 Jan - 01:21:15 10° WNW 01:29:01 54° N 01:43:35 10° E visible
24 Jan - 03:41:27 10° WNW 03:53:04 87° NNE 04:14:10 10° ESE visible
24 Jan - 06:03:18 10° WNW 06:18:30 49° SW 06:40:20 10° SSE visible
24 Jan - 08:32:58 10° WSW 08:44:55 18° SW 08:57:50 10° S daylight
24 Jan - 21:02:32 10° SW 21:06:54 55° SSE 21:12:47 10° ENE visible
24 Jan - 23:22:11 10° W 23:27:40 50° N 23:37:05 10° ENE night (unlit)
25 Jan - 01:42:19 10° WNW 01:50:31 58° NNE 02:06:04 10° E visible
25 Jan - 04:02:31 10° WNW 04:14:31 81° SSW 04:35:58 10° SE visible
25 Jan - 06:25:09 10° W 06:40:05 39° SW 07:00:33 10° SSE visible
25 Jan - 09:01:55 10° SW 09:06:52 11° SW 09:11:57 10° SSW daylight
25 Jan - 19:07:39 10° SSE 19:08:19 10° SE 19:08:58 10° SE visible
25 Jan - 21:23:18 10° WSW 21:27:47 87° SSE 21:34:10 10° ENE visible
25 Jan - 23:43:23 10° WNW 23:49:06 46° N 23:58:58 10° ENE night (unlit)
26 Jan - 02:03:19 10° WNW 02:11:58 66° NNE 02:28:31 10° E visible
26 Jan - 04:23:39 10° WNW 04:36:00 69° SSW 04:57:24 10° SE visible
26 Jan - 06:47:31 10° W 07:01:44 31° SW 07:20:14 10° SSE daylight
26 Jan - 19:25:52 10° SSW 19:29:08 19° SE 19:32:28 10° E visible
26 Jan - 21:44:18 10° WSW 21:48:51 66° NNW 21:55:29 10° ENE night (unlit)
27 Jan - 00:04:31 10° WNW 00:10:31 46° N 00:21:03 10° ENE night (unlit)
27 Jan - 02:24:17 10° WNW 02:33:21 76° NNE 02:50:48 10° ESE visible
27 Jan - 04:44:56 10° WNW 04:57:30 56° SSW 05:18:27 10° SE visible
27 Jan - 07:10:43 10° W 07:23:29 23° SW 07:39:09 10° S daylight
27 Jan - 19:45:53 10° SSW 19:49:57 34° SSE 19:54:16 10° E visible
27 Jan - 22:05:27 10° W 22:10:01 50° NNW 22:16:50 10° ENE night (unlit)
28 Jan - 00:25:36 10° WNW 00:31:56 48° NNE 00:43:17 10° E visible
28 Jan - 02:45:16 10° WNW 02:54:42 88° NNE 03:12:51 10° ESE visible
28 Jan - 05:06:26 10° W 05:19:04 45° SSW 05:39:05 10° SSE visible
28 Jan - 07:35:34 10° WSW 07:45:25 16° SW 07:56:42 10° S daylight
28 Jan - 20:06:26 10° SW 20:10:48 59° SSE 20:15:38 10° ENE visible
28 Jan - 22:26:40 10° WNW 22:31:18 42° N 22:38:19 10° ENE night (unlit)
29 Jan - 00:46:36 10° WNW 00:53:17 54° NNE 01:05:35 10° E visible
29 Jan - 03:06:16 10° WNW 03:16:02 78° SSW 03:34:35 10° SE visible
29 Jan - 05:28:17 10° W 05:40:41 35° SW 05:59:14 10° SSE visible
29 Jan - 18:09:26 10° S 18:11:53 13° SSE 18:14:07 10° ESE daylight
29 Jan - 20:27:19 10° WSW 20:31:44 86° NNW 20:36:50 10° ENE visible
29 Jan - 22:47:53 10° WNW 22:52:38 39° N 22:59:59 10° ENE night (unlit)
30 Jan - 01:07:32 10° WNW 01:14:34 63° NNE 01:27:51 10° E visible
30 Jan - 03:27:21 10° WNW 03:37:25 64° SSW 03:55:57 10° SE visible
30 Jan - 05:50:42 10° W 06:02:26 27° SW 06:18:47 10° SSE visible
30 Jan - 18:28:49 10° SSW 18:32:53 23° SSE 18:36:26 10° E visible
30 Jan - 20:48:26 10° W 20:52:46 58° NNW 20:57:58 10° ENE visible
30 Jan - 23:09:01 10° WNW 23:13:59 39° N 23:21:50 10° ENE night (unlit)
31 Jan - 01:28:27 10° WNW 01:35:49 75° NNE 01:49:58 10° ESE visible
31 Jan - 03:48:37 10° WNW 03:58:51 51° SSW 04:16:57 10° SE visible
31 Jan - 06:14:04 10° WSW 06:24:18 19° SW 06:37:27 10° S visible
31 Jan - 18:49:06 10° SW 18:53:50 39° SSE 18:57:58 10° E visible
31 Jan - 21:09:42 10° W 21:13:54 42° NNW 21:19:08 10° ENE visible
31 Jan - 23:30:04 10° WNW 23:35:17 43° NNE 23:43:50 10° E night (unlit)
01 Feb - 01:49:22 10° WNW 01:57:01 89° SSW 02:11:53 10° ESE visible
01 Feb - 04:10:08 10° W 04:20:24 40° SSW 04:37:29 10° SSE visible
01 Feb - 06:39:38 10° WSW 06:46:22 13° SW 06:54:07 10° SSW visible
01 Feb - 16:52:30 10° S 16:54:17 11° SSE 16:55:54 10° SE daylight
01 Feb - 19:09:50 10° SW 19:14:46 66° SSE 19:19:10 10° ENE visible
01 Feb - 21:31:01 10° WNW 21:35:07 35° N 21:40:25 10° ENE visible
